World > North America > United States > Ohio > Hiram  

Hiram, OH Hourly Weather Updates

Feedback E-mail the Weather

Quick Clicks

Hiram, OH Weather Maps

°F °C°F °C
Hiram Weather Map
UTC Time: 7/20/2024, 15:56
Your Time:

Hiram, OH Regional Weather

Expires:202407201600;;992680
ASUS41 KCLE 201512
RWRCLE
OHIO REGIONAL WEATHER ROUNDUP
NATIONAL WEATHER SERVICE WILMINGTON, OH
1100 AM EDT SAT JUL 20 2024

NOTE: "FAIR" INDICATES FEW OR NO CLOUDS BELOW 12,000 FEET WITH NO
SIGNIFICANT WEATHER AND/OR OBSTRUCTIONS TO VISIBILITY.


OHZ009>014-019>023-028>033-038-089-201600-
   NORTHEAST OHIO
  
CITY           SKY/WX    TMP DP  RH WIND       PRES   REMARKS
CLE-HOPKINS    FAIR      77  52  41 N7        30.12S                  
CLE-LAKEFRONT  FAIR      75  58  55 NW6       30.12S                  
CUY CO. ARPT   SUNNY     75  54  46 N5        30.13S                  
LORAIN-ELYRIA  FAIR      76  56  49 N5        30.14S                  
ASHTABULA      FAIR      73  55  53 NW5       30.13S                  
AKRON-CANTON   FAIR      78  56  46 NW9       30.12F                  
WOOSTER        FAIR      78  57  48 N7        30.14S                  
MANSFIELD      FAIR      77  51  40 N8        30.14S                  
YOUNGSTOWN     FAIR      76  58  53 N7        30.12F                  
$$
 

SKY/WX - Weather  TMP - Temperature  DP - Dew Point  RH - Humidity
WIND - Wind Direction/Speed PRES - Barometric Pressure VSB - Visibility
WCI - Wind Chill Index E13G22 Wind - East Wind 13 mph/Gusts of 22 mph

Trending Headlines

Trending Entertainment Headlines

Hiram Radar Loop

Use the map search tool if you want to place a location marker on the radar map...

Hiram Quick Facts

National Two Day Weather Forecast


E-mail the Hiram Weather Forecast

Voice your opinion or tell us about page issues...